CDT,Max TemperatureF,Mean TemperatureF,Min TemperatureF,Max Dew PointF,MeanDew PointF,Min DewpointF,Max Humidity, Mean Humidity, Min Humidity, Max Sea Level PressureIn, Mean Sea Level PressureIn, Min Sea Level PressureIn, Max VisibilityMiles, Mean VisibilityMiles, Min VisibilityMiles, Max Wind SpeedMPH, Mean Wind SpeedMPH, Max Gust SpeedMPH,PrecipitationIn, CloudCover, Events, WindDirDegrees
2013-10-1,79,71,63,68,65,61,96,85,64,30.03,29.99,29.93,10,8,5,12,8,17,0.00,5,,177
2013-10-2,83,74,64,71,67,64,99,84,53,30.08,30.02,29.97,10,7,0,10,5,,0.00,3,Fog,164
2013-10-3,87,76,66,69,67,64,95,82,47,29.98,29.93,29.85,10,10,2,25,8,33,0.58,3,Rain-Thunderstorm,176
2013-10-4,87,78,68,69,67,64,96,74,45,29.97,29.94,29.90,10,9,5,15,8,17,0.00,1,,173
2013-10-5,75,65,55,70,64,50,96,85,68,29.95,29.91,29.85,10,10,5,14,9,18,0.00,3,Rain,205
2013-10-6,55,50,46,49,43,37,95,77,56,29.89,29.85,29.82,10,10,5,18,9,26,0.00,4,Rain,234
2013-10-7,70,57,44,49,46,42,97,72,37,30.13,30.03,29.88,10,10,10,13,3,17,0.00,3,,280
2013-10-8,77,60,44,52,46,42,95,64,31,30.21,30.16,30.13,10,10,10,10,0,16,0.00,0,,146
2013-10-9,74,58,41,51,45,40,96,69,32,30.21,30.16,30.11,10,9,2,4,0,,0.00,0,,160
2013-10-10,78,62,46,60,52,45,97,74,42,30.17,30.10,30.02,10,8,1,12,2,16,0.00,1,,151
2013-10-11,79,66,54,60,55,52,97,70,40,30.05,29.99,29.91,10,9,4,17,8,25,0.00,1,,147
2013-10-12,73,60,47,60,52,41,85,68,32,30.23,30.05,29.95,10,10,10,13,7,17,0.00,2,Rain-Thunderstorm,241
2013-10-13,68,54,40,43,37,31,93,61,25,30.41,30.35,30.23,10,10,3,10,2,,0.00,0,,356
2013-10-14,69,52,36,47,39,33,93,64,32,30.37,30.26,30.07,10,10,5,15,6,18,0.00,0,,102
2013-10-15,68,59,50,63,55,43,97,84,66,30.06,29.94,29.87,10,8,2,14,10,20,0.25,4,Rain,192
2013-10-16,54,48,43,44,42,40,88,75,62,30.04,30.00,29.97,10,10,10,14,6,18,0.00,7,,254
2013-10-17,64,55,46,46,43,36,95,72,36,30.00,29.94,29.89,10,10,7,14,4,22,0.00,4,Rain,230
2013-10-18,57,48,41,43,39,34,94,73,44,30.06,30.00,29.92,10,10,10,13,7,18,0.00,4,Rain,271
2013-10-19,57,47,37,41,37,32,96,74,39,30.00,29.95,29.90,10,10,10,17,8,25,0.08,3,Rain,234
2013-10-20,70,56,41,42,39,36,83,57,32,29.93,29.87,29.80,10,10,10,21,10,28,0.00,1,,197
2013-10-21,55,44,32,43,35,29,92,64,43,30.05,30.00,29.88,10,10,10,17,9,22,0.00,2,,275
2013-10-22,53,42,31,46,37,29,96,87,72,30.05,29.95,29.80,10,10,7,22,6,26,0.01,6,Rain,225
2013-10-23,48,38,31,36,30,25,93,71,44,30.14,30.08,30.01,10,10,7,13,8,20,0.00,5,,285
2013-10-24,42,34,27,36,27,22,87,68,48,30.40,30.26,30.11,10,10,10,17,8,23,0.00,6,,286
2013-10-25,54,39,25,32,27,22,91,64,33,30.48,30.37,30.19,10,10,10,14,6,18,0.00,0,,215
2013-10-26,61,46,32,37,29,24,78,53,30,30.17,30.08,30.02,10,10,10,22,10,29,0.00,2,,246
2013-10-27,58,43,28,32,28,24,90,61,31,30.14,30.08,30.02,10,10,10,12,1,,0.00,0,,215
2013-10-28,66,48,29,38,32,26,90,62,29,30.27,30.18,30.06,10,10,7,8,0,,0.00,0,,107
2013-10-29,58,47,36,54,45,32,97,83,62,30.27,30.17,30.09,10,6,0,10,3,,0.02,5,Rain,125
2013-10-30,67,60,54,66,60,54,99,97,91,30.08,29.98,29.81,10,4,0,14,2,20,0.15,7,Fog-Rain-Thunderstorm,165
2013-10-31,64,55,46,63,56,44,99,94,90,29.80,29.56,29.38,10,8,2,20,10,25,0.79,7,Rain,229